Regional Weather Roundup
Issued by NWS

Home | Current Version | Previous Version | Text Only | Print | Product List | Glossary On
Versions: 1 2 3 4 5 6 7 8 9 10 11 12 13 14 15 16 17 18 19 20 21 22 23 24 25 26 27
000
ASUS45 KSLC 260810
RWRUT

UTAH REGIONAL WEATHER ROUNDUP
NATIONAL WEATHER SERVICE SALT LAKE CITY UT
100 AM MST SUN FEB 26 2017

UTZ001>011-023>025-260900-

NORTHERN UTAH

CITY           SKY/WX    TMP DP  RH WIND       PRES   REMARKS
BRIGHAM CITY     N/A     23  16  75 SE3       29.99S
HILL AFB       CLEAR     18  12  78 SE7       29.96S WCI   9
LOGAN          CLEAR     14   9  80 SW3       29.98S
OGDEN          CLEAR     22  17  81 S9        29.96F WCI  12
SALT LAKE CITY PTCLDY    24  15  68 SE6       29.98F WCI  17
TOOELE VALLEY  CLEAR     21  16  79 S7        29.99S WCI  13
WENDOVER       CLEAR     21  14  73 NE3       29.98S
HEBER CITY     CLEAR      3   0  85 SE5       29.95S WCI  -6
WEST JORDAN    CLEAR     24  20  85 SW6       29.98S WCI  17

$$

UTZ011>015-024>027-260900-

CENTRAL/NORTHEAST UTAH

CITY           SKY/WX    TMP DP  RH WIND       PRES   REMARKS
PROVO AIRPORT  CLEAR     13  10  88 E3        30.01S
MOAB/CANYONLAN MOCLDY    29  10  45 W8        29.93S WCI  21
DELTA          PTCLDY    23  19  86 NE6       29.97S WCI  16
PRICE          CLEAR     21   7  54 N6        29.91S WCI  13
RICHFIELD      MOCLDY    23  23 100 W1        29.98F
ROOSEVELT      CLEAR     16   5  62 N6        29.95S WCI   7
VERNAL         CLOUDY    11   0  61 W5        29.93S WCI   3

$$

UTZ013>016-019>022-027-260900-

SOUTHERN UTAH

CITY           SKY/WX    TMP DP  RH WIND       PRES   REMARKS
BRYCE CANYON   CLEAR      5   1  83 W8        29.89R WCI  -8
CEDAR CITY     CLOUDY    23  21  92 W3        29.93S
MILFORD        CLOUDY    25  21  85 CALM      29.95F
ST GEORGE      SUNNY     36  22  56 S5        29.97R WCI  32
HANKSVILLE     MOCLDY    32  16  51 S5        29.96F WCI  27
KANAB          CLEAR     27  19  74 N3        29.97S
BLANDING       CLOUDY    29  18  62 CALM      29.96R

$$

REGIONAL REPORTS     COLORADO/ARIZONA

CITY           SKY/WX    TMP DP  RH WIND       PRES   REMARKS
CRAIG, CO      CLOUDY    17  11  77 CALM      29.90S
GRAND JUNCTION CLEAR     22  13  68 CALM      29.92S
RIFLE, CO      CLEAR     20  12  71 SW8       29.93R WCI  10
MONTROSE, CO   CLOUDY    27  16  63 S10       29.93S WCI  17
CORTEZ, CO     CLOUDY    27  18  69 CALM      29.89R
COLORADO CITY    N/A     23  21  93 SE3       29.96S
PAGE, AZ       CLEAR     40   9  28 CALM      29.91R
GRAND CANYON   PTCLDY    27  19  72 SW6       29.93F WCI  20
KINGMAN, AZ    CLOUDY    45  11  25 SE7       29.92S
FLAGSTAFF, AZ  CLOUDY    26  21  81 W6        29.94F WCI  19

$$

REGIONAL REPORTS    NEVADA/IDAHO/WYOMING

CITY           SKY/WX    TMP DP  RH WIND       PRES   REMARKS
LAS VEGAS, NV  PTCLDY    44  22  41 W5        29.92R
ELY, NY        CLEAR      8   5  87 S12       29.93S WCI  -7
ELKO, NV       CLEAR     20  14  77 NE3       29.95F
POCATELLO, ID  CLOUDY    20   9  62 S15       29.93S WCI   6
BURLEY, ID     CLEAR     23  11  60 S10       29.93F WCI  12
FORT BRIDGER,    N/A      8   3  79 SW17      29.88S WCI -10
EVANSTON, WY   CLOUDY     2  -3  80 SW10      29.85F WCI -14
ROCK SPRINGS,  CLOUDY     7   1  76 SW17      29.84S WCI -12
KEMMERER, WY     N/A      1  -2  85 W8        29.83S WCI -12

$$




USA.gov is the U.S. government's official web portal to all federal, state and local government web resources and services.